[Date Prev][Date Next][Thread Prev][Thread Next][Date Index][Thread Index]

[jamsat-news:1257] jas2info #183



========================   最新情報   ==============================

        Last updated :Sat.15-Apr.-2000  20:15 (JST) #183

====================================================================
   
  1)アマチュア通信衛星情報 FOシリーズの軌道要素、テレメトリ、
   QSOの状況等をまとめてみました.
   
   FO−29の4月15日(土)のテレメトリはJARLのホームページの
  運用予定のとうり13:18(JST)のパスではアナログ系運用になって
  おりました.CW信号でテレメトリを13:19〜13:26(JST)に
  受信できました.
  現在まで、当局で取得したデータの1部を掲載しておきます. 

 AS18077C1  15Apr2000
 13:19-13:26(JST)
 Freq.435.801-.789MHz

 HI HI AE C7 88 55 07 34 FF 0D 00 2E 93 73 97 60        4 92 BC B9 B9 BA B9 
 HI HI AE C7 88 55 0C 34 FF 0D 00 2E 34 52 91          B1 B9 BC B9 B9 B9 B9 
 HI HI AE C7 86 55 11 34 FF 0D 00 2E 90 3F 8E 60 92 71 9F 67 BC B9 B9 B9 B9 
 HI HI AE C7 88 55 17 34 FF 0D 00 2E 47 60 8A 5F 95 93 B0 66 BC B9 B9 B9 B8 
 HI HI AE 07 88 55 1C 34 FF 0D 00 2E 77 22 88 61 94 91 B1 8C BC B9 B9 B9 B8 
 HI HI AE C7 88 55 01 34 FF 0D 00 2E 66 58 7D 60 93 90 B0 C4 BB B9 B9 B9 B8 
 
 AS18076C1  15Apr2000
 11:32-11:44(JST)
 Freq.435.805-.786MHz

 HI HI AE C7 88 55 00 34 FF 0D 00 2E 95 65 86 60 94 92 A1 72 BD BB BA BA B9 
 HI HI AE C7 88 55 00 34 FF 0D 00 2E 4F 57 6C 60 92 91 9E 85 BD BA BA BA B9 
 HI HI AE C7 88 55 0A 34 FF 0D 00 2E 7B A7 7D 49 94 92 B0 81 BD BA BA BA B9 
 HI HI AE 07 88 55 0F 34 FF 0D 00 2E 87 3C 90 41 96 92 B0 88 BD BA B9 BA B9 
 HI HI AE 07 88 55 14 34 FF 0D 00 2E 92 A1 8A 49 A4 9O B0 85 BC BA B9 BA B9 
 HI HI AE C7 88 55 1E 34 FF 0D 00 2E 90 AE 8E 88 85 91 BO 89 BD BA B9 BA B9
 HI HI AE C7 88 55 1B 34 FF 0D 00 2E E8 05 83 75 88 90 93 90 B9 BA B9 BA B9 
 HI HI AE C7 88 55 0E 35 FF 0D 00 2E 7F    79 4B 85 92 B0 97 BD B9 B9 BA B9 
 HI HI AE C7 88 55 13 34 FF 0D 00 2E 75 E3 7E 92 93 90 B0 89 BC B9 B8 BA B9 
 HI HI AE C7 88 55 18 34 FF 0D 00 2E 8E C0 69 54 93 91 9F 76 BC B9 B8 BA B9 
 HI HI AE C7 88 55 1D 34 0A 0D 00 2E AB 96 74 45 94 91 B0 7D BC B9 B8 BA B9
 HI HI AE C7 88 55 02 34 FF 0D 00 2E 76 BE 77 69 93 91 B0 88 BC B8 B8 BA B9 
 HI HI AE C7 88 55 07 34 FF 0D 00 2E 9F AC 7B 60 93 91 B0 82 BC B8 B8 BA B9 
 HI HI AE 07 88 55 1D 34 FF 0D 00 2E 82 BD 80 60 92 90 B0 57 BC B8 B8 BA B9

 AS18049C1      13Apri2000
 11:35-11:47(JST)
 Freq.  - 435.786MHz

 HI HI AE C7 88 55 1C 34 FF 0D 00 2E 4A 3E 83 45 96 93 B0 7F BD B6 BB BE B9 
 HI HI AE 07 88 55 01 34 FF 0D 00 2E 6B A1 86 60 93 91 B0 84 BD B6 BA BE B9 
 HI HI AE C7 88 55 06 34 FF 0D 00 2E 89 34 78 60 92 90 9F 7D BC B5 BA BE B9 
 HI HI AE C7 88 55 1B 34 FF 0D 00 2E          60 93 90       BC B5 BA BE B9
 HI HI AE C7 88 55 10 34 FF 0D 10 2E A1  A 88 60 94 92 A0 92 BC B5 BA BE B9 
 HI HI AE C7 88 55 1  34 FF 0D 00 2E 70       60 93 90 B0 85 BC B4 BA BE B9 
 HI HI AE C7 88 55 04 34 FF 0D 00 2E 4A 5B 83 60 93 90 B0 81 BB B4 B9 BD B9 
 HI HI AE C7 88 55 0A 34 FF 0D 00 2E 8B 28 86 60 93 90 B0 72 BB B4 B9 BD B9 
 HI HI AE C7 88 55 0F 34 FF 1E 00 2E 3F 34 90 41 94 91 B0 4F BB B4 B9 BD B9 
 HI HI AE 07 88 55 14 34 FF 0D 00 2E 7B 2  8F 60 92 91 B0 7E BB B4 B9 BD B9 
 HI HI AE C7 D8 55 0A 34 FF OD 00 2E 5E 1B 8E 60 93 91 B0 90 BB B3 D9 BD B9
 HI HI AE C7 88 55    34 FF 0D 00 2E 5E 3O 8C 60 93 91 B0 94 BB B3 B9 BD B9 
 HI HI AE C7 88 55 03 34 FF 0D 00 2E 5B 13 88 60 93 90 B0 

  
 AS18035C1  12Apri2000
 10:44-10:56(JST)

 HI HI AE C7 88 55 19 34 FF 0D 00 3E 52 67 5D 59 94 91 9E 7D BB BC BC B9 B9 
 HI HI AE 07 88 55 1E 34 FF 0D 00 2E 5A 87 6C 4F 94 92 A0 86 BC BC BC B9 B9 
 HI HI AE 07 88 55 03 34 FF 0D 00 2E 62 9O 66 4E 95 92 A0 84 BB BC BC B8 B9 
 HI HI AE C7 88 55 08 34 FF 0D 00 2E 83 A1 62 56 93 91 9E 7B BB BC BB B8 B9 
 HI HI AE C7 88 55 0D 34 FF 0D 00 2E 37 56 87 60 93 90 B0 70 BB BC BB B8 B9 
 HI HI AE C7 88 55 12 34 FF 0D 00 2E 39 93 5F 59 94 91 B0    BB BC BB BO H8 
 HI HI AE 07 88 55 17 34 FF 0D 00 2E 3D 85 73 60 94 92 A0 82 BB BC BB B8 B8 
 HI HI AE C7 88 55 1C 34 FF 1E 00 2E 64 7A 71 4E 94 92 A0    BA BD BB B8 B9  
 HI HI AE C7 88 55 01 34 0A 0D 00 2E 6B AF 69 53 94 92 A0 BA BB BB BB B8 B9 
 HI HI AE C7 88 55 06 34 FF 0D 00 2E 33 7D 81 60 94 92 AE 80 BA BB BB B8 B9 
 HI HI AE C7 88 55 0B 34 FF 0D 00 2E 74 81 6A 60 93 90 B0 85 BA BB BB B7 B8 
 HI HI AE C7 88 55 10 34 05 0D 00 2E 33 9A 7F 60 93 92 I0 74 BA BB BB B7 H9 
 HI HI AE C7 88 55 16 34 1E 25 00 2E 67 B4 7B 4B 95 93 B0 75 BA BB BA B7 B9 
 HI HI AE C7 88 55 1B 34 1E 0D 00 2E 55 B3 7D 60 93 90 B0 7B BA BA BA B7 B9 
 HI HI AE C7 88 55 00 34 FF 0D 00 2E 44 B4 88 60 94 91 B0 79 SA BB BA B7 B9 
 HI HI AE 07 88 55 05 34 FF 0D 00 2E 6C C0 7D 60 92 91 A0 72 B9 BA BA B7 B8 
 HI HI AE C7 88 55 0A 34 FF 25 00 2E 3C  6 89 60 93 91 B0 89 B9 BA BA B7 B9 
 HI HI AE 07 88 55 0F 34 FF 0D 00 2E 30

 ------------------------ FO-29の軌道要素 ------------------------------        
 
  ■ 軌道要素1:「jamsat−keps:984」より              
            SB KEPS @ AMSAT  $ORB00105.N
            2Line Orbital Elements 00105.AMSAT

 HR AMSAT ORBITAL ELEMENTS FOR AMATEUR SATELLITES IN NASA FORMAT
 FROM WA5QGD FORT WORTH,TX April 14, 2000
 SEND SUBSCRIBE/UNSUBSCRIBE TO majordomo@amsat.org ONLY
 BID: ORB00105.N

  DECODE 2-LINE ELSETS WITH THE FOLLOWING KEY:
  1 AAAAAU 00  0  0 BBBBB.BBBBBBBB  .CCCCCCCC  00000-0  00000-0 0  DDDZ
  2 AAAAA EEE.EEEE FFF.FFFF GGGGGGG HHH.HHHH III.IIII JJ.JJJJJJJJKKKKKZ
  KEY: A-CATALOGNUM B-EPOCHTIME C-DECAY D-ELSETNUM E-INCLINATION F-RAAN
  G-ECCENTRICITY H-ARGPERIGEE I-MNANOM J-MNMOTION K-ORBITNUM Z-CHECKSUM

  TO ALL RADIO AMATEURS BT

 FO-29
 1 24278U 96046B   00103.80942900  .00000216  00000-0  25490-3 0 03248
 2 24278 098.5888 020.2435 0351861 036.2270 326.2153 13.52713848180453

 ■ 軌道要素2:「jamsat−keps:983」より                         
         SB KEPS @ AMSAT  $ORB00105.O
         Orbital Elements  00105.OSCAR

 HR AMSAT ORBITAL ELEMENTS FOR OSCAR SATELLITES
 FROM WA5QGD FORT WORTH,TX April 14, 2000
 SEND SUBSCRIBE/UNSUBSCRIBE TO majordomo@amsat.org ONLY
 BID: ORB00105.O
 TO ALL RADIO AMATEURS BT

  Satellite: FO-29
 Catalog number: 24278
 Epoch time:      00103.80942900
 Element set:    0324
 Inclination:      098.5888 deg
 RA of node:       020.2435 deg
 Eccentricity:    0.0351861
 Arg of perigee:   036.2270 deg
 Mean anomaly:     326.2153 deg
 Mean motion:   13.52713848 rev/day
 Decay rate:       2.16e-06 rev/day^2
 Epoch rev:           18045
 Checksum:              286
-------------------  FO-29(JAS-2)のテレメトリに関する情報  ----------------------
 
 2)上記の4月15日(土)のテレメトリの最後の行の
  分析結果です。

 AS18077C1  15Apr2000
 13:19-13:26(JST)
 Freq.435.801-.789MHz

 HI HI AE C7 88 55 01 34 FF 0D 00 2E 66 58 7D 60 93 90 B0 C4 BB B9 B9 B9 B8 
 
 テレメトリ  	内   容	    	換算値	単 位 
3C	磁気センサーZ軸=	50000.0	[nT]
3D	磁気センサX軸 =	43137.2	[nT]
4A	太陽電池発生電流=	 1225.5	[mA]
4B	B充放電電流	=	 -118.4	[mA]
4C	B端子電圧	=	   15.8	[V]
4D	B中間端子電圧	=	    6.9	[V]
5A	バス電圧 	=	   17.3	[V]
5B	JTA送信電力	=	 1175.9	[mW]
5C 	構体温度1	=	    9.3	[℃]
5D	構体温度2	=	   10.0	[℃]
6A	構体温度3	=	   10.0	[℃]
6B	構体温度4	=	   10.0	[℃]
6C	Bセル温度	=	   10.4	[℃]

  * OSはWindows 2000,Office 2000 にて計算処理.
  
 ==================================================================================

  4)JARL のホームページに運用予定が記載されていましたのでご紹介します.
       ( http://www.jarl.or.jp/Japanese/3_Fuji/new/uy.htm )

        ■ ふじ3号/FOー29/JAS-2 ■  
   
     *** 運用予定について ***   

 04月07日 〜 04月16日 アナログ系運用 
 04月17日 〜 04月20日 デジタル系1200bpsメールボックス運用 
 04月21日 〜 05月07日 アナログ系運用 

 *なお,運用予定は都合により変更することがありますのでご了承願います。

 照会先 : lab@jarl.or.jp

 最新の情報はテレホンサービス(03−3942−1000)をお聞きください。  
 以後の運用につきましては4月下旬にお知らせいたします。
 
-----------------------    FO−20(JAS-1b)道要素   -------------------------
  5)
  ■ 軌道要素1 :出典はFO-29「ふじ3号」に同じ.
  
  FO-20
 1 20480U 90013C   00103.89063160  .00000101  00000-0  30224-3 0 02230
 2 20480 099.0406 246.5481 0539983 203.0862 154.5122 12.83269893476909

  ■ 軌道要素2 :出典はFO−29「ふじ3号」に同じ.
               
  Satellite: FO-20
 Catalog number: 20480
 Epoch time:      00103.89063160
 Element set:    0223
 Inclination:      099.0406 deg
 RA of node:       246.5481 deg
 Eccentricity:    0.0539983
 Arg of perigee:   203.0862 deg
 Mean anomaly:     154.5122 deg
 Mean motion:   12.83269893 rev/day
 Decay rate:       1.01e-06 rev/day^2
 Epoch rev:           47690
 Checksum:              285

 --------------------------------------------------------------------------------
 6)         ■ ふじ2号/FO−20/JAS-1b ■      
            
          「ふじ2号」 現況                                                                                  
             
   JAS-1b(ふじ2号)のCWテレメトリ信号に,1997年10月12日12時(JST)の
 日本上空通過時,3桁の数字が繰り返されるはずが3個の長音の繰り返しとなっているという
 異常が発見されました。この不具合は次の通過時からは回復していましたが13日15時20分の
 通過時に再び観測されました。現在はA0の送信が続いています。衛星のアナログ系中継モード
 動作は異常が無く,正常時のテレメトリ内容からは衛星の動作に異常は認められません。従って,
 直ちに衛星のミッションに影響することは無いと予想されますので,当面はアナログ系中継
 モードを継続します。衛星は既に打ち上げてから7年8ヶ月を経ておりますので,今後は監視を
 強化する予定です。アマチュア各位のレポートをお待ちします。
 -------------------------------------------------------------------------------- 
  1997年10月14日 00時35分 確認のテレメトリ音 151 KB (A0) 
  1997年10月14日 11時10分 確認のテレメトリ音 216 KB (異常キーイング) 

  以上 JARLのホ−ムページの http://www.jarl.or.jp/Japanese/3_Fuji/new/fuji.htm
                                           
   =============   JAS-2 (ふじ3号)と現在までの情報   ===========
  
  A.電話によるふじ3号の運用情報
      社団法人日本アマチュア連盟によるサービス
           TEL .   03− 3942 − 1000
  B.アマチュア無線FAXサービス
      JARLによるふじ3号の軌道情報(オービットカレンダー)
         FAX No.  03− 3233 −0055
  C.WWWブラウザで情報を簡単に見れる人のためにJAS−2
     ふじ3号の衛星としての運用されるまでの名前)の概要、打ち上げ
     までの状況、運用中における状況を説明したホームページを紹介し
     ておきます.
     社団法人日本アマチュア無線連盟(JARL)のホームページ

          http://www.jarl.or.jp/Japanese/3_Fuji/jasmenu.htm
 
     宇宙開発事業団(NASDA)ホームページ 
          http://www.nasda.go.jp/
         打上げ衛星 :地球観測プラットフォーム技術衛星(ADEOS) 
                       アマチュア衛星3号(JAS-2)
          http://yyy.tksc.nasda.go.jp/Home/Press/Press-j/jas-2_j.html        

  D.JAMSATによる軌道情報の活用
        JAMSATのホームページまたはjamsat−kepsの軌道要素より
      衛星の軌道情報を得る.
     JAMSATホームページ
               URL    http://www.jamsat.or.jp
       上記ホームページでは各地で行われるアマチュア通信衛星に関する
      ミューティングのお知らせや世界のアマチュア衛星に関する情報が
      満載されています.
 ========================================================================  
     JAMSATのメンバーのご協力によりJH6MME(高山 秀造)が
    執筆・編集を担当しております.ご指摘の意見、疑問やこのようにしたら
    というアイデアがありましたら小さなことでもかまいませんので気軽に下
    記アドレスまでご連絡ください.jamsat−newsからjas2
    infoへの転載をJH4PHW局坂井さんに担当して頂いております.  
                  E-mail : jh6mme@jamsat.or.jp : jh4phw@jamsat.or.jp
 ===============================   END  ===============================